Simultaneous Nadir Overpasses (SNOs) Predictions

Prediction of SNOs between AQUA and METOP-A Satellite Orbit:

Table of predicted SNOs for the next 14.0 days since TLE Epoch: 2/12/2016
Index Date (AQUA) Time (AQUA) Lat,Lon (AQUA) SZA (AQUA ) Date (METOP-A) Time (METOP-A) Lat,Lon (METOP-A) SZA (METOP-A ) Distance(km) Time Diff (sec)
1 02/14/2016 05:00:30 -73.85, -80.97 92.82 02/14/2016 04:59:36 -73.85, -80.89 92.82 2.43 54
2 02/14/2016 05:49:59 73.92, 86.51 87.25 02/14/2016 05:50:15 73.90, 86.58 87.22 2.86 16
3 02/14/2016 06:39:37 -74.56,-107.35 92.07 02/14/2016 06:40:43 -74.57,-104.42 92.20 86.72 66
4 02/17/2016 00:34:49 -73.84, -14.52 93.80 02/17/2016 00:34:01 -73.86, -14.46 93.77 2.77 48
5 02/17/2016 01:24:18 73.92, 152.95 86.27 02/17/2016 01:24:40 73.91, 152.99 86.26 1.44 22
6 02/19/2016 20:09:08 -73.86, 51.86 94.77 02/19/2016 20:08:26 -73.87, 51.95 94.76 2.69 42
7 02/19/2016 20:58:36 73.89,-140.56 85.25 02/19/2016 20:59:05 73.91,-140.61 85.27 2.87 29
8 02/22/2016 15:43:25 -73.86, 118.30 95.79 02/22/2016 15:42:50 -73.86, 118.34 95.78 1.37 35
9 02/22/2016 16:32:53 73.89, -74.13 84.23 02/22/2016 16:33:29 73.90, -74.23 84.24 3.38 36
10 02/25/2016 11:17:42 -73.83,-175.21 96.86 02/25/2016 11:17:15 -73.85,-175.28 96.83 2.85 27
11 02/25/2016 12:07:11 73.92, -7.77 83.23 02/25/2016 12:07:53 73.93, -7.75 83.23 1.61 42




NCC Satellite Simultaneous Nadir Overpasses (SNOs) Prediction Service
